Regional Weather Roundup
Issued by NWS

Current Version | Previous Version | Text Only | Print | Product List | Glossary On
Versions: 1 2 3 4 5 6 7 8 9 10 11 12 13 14 15 16 17 18 19 20 21 22 23 24 25 26 27 28 29 30 31 32 33 34 35 36 37 38 39 40 41 42 43 44 45 46 47 48 49 50
000
ASUS45 KTFX 020619
RWRMT
MONTANA HOURLY WEATHER ROUNDUP
NATIONAL WEATHER SERVICE GREAT FALLS MT
1219 AM MDT SAT AUG 2 2014

NOTE: "FAIR" INDICATES FEW OR NO CLOUDS BELOW 12000 FEET WITH NO
SIGNIFICANT WEATHER AND/OR OBSTRUCTIONS TO VISIBILITY.

* THESE STATIONS ARE NOT UNDER NWS QUALITY CONTROL. THEY DO NOT
   REPORT WEATHER SUCH AS PRECIPITATION OR FOG.

MTZ001>007-043-020700-
WEST OF THE DIVIDE
CITY           SKY/WX    TMP DP  RH WIND       PRES   REMARKS
KALISPELL      CLOUDY    70  55  59 N9        30.15S
MISSOULA       CLOUDY    73  46  38 W3        30.12S
BUTTE          CLOUDY    68  43  40 NW3       30.27S
MULLAN PASS    MOCLDY    64  39  40 SE9       30.26S
* ESSEX        N/A      N/A N/A N/A N/A        N/A
* LINCOLN      N/A       59  56  90 SE4G18     N/A
* LOOKOUT PASS N/A       56  49  77 S3         N/A
* POLSON       N/A       70  48  46 N/A        N/A
* RONAN APT    CLOUDY    73  52  48 N/A        N/A
* SEELEY LAKE  N/A       61  55  81 SW3        N/A
* THOMP F APT  MOCLDY    60  40  48 N6G13      N/A
$$

MTZ008-052>055-020700-
SOUTHWEST MONTANA
CITY           SKY/WX    TMP DP  RH WIND       PRES   REMARKS
BOZEMAN        PTCLDY    63  45  52 CALM      30.21S
DILLON         PTCLDY    63  46  54 S7        30.24S
W YELLOWSTONE  MOCLDY    46  46 100 S5        30.37F
* THREE FORKS  PTCLDY    66  54  65 N/A        N/A
* BOULDER HILL N/A       64  42  45 SW4        N/A
* MONIDA PASS  N/A       52  45  77 W2         N/A
* RAYNOLDS PAS N/A       53  33  47 SE3        N/A
* WHITEHALL    N/A       70  43  38 SW4G12     N/A
* WISE RIVER   N/A       57  49  75 W6G12      N/A
$$

MTZ009>010-012-014-046-048-049-054-020700-
EAST SLOPES AND CENTRAL MONTANA
CITY           SKY/WX    TMP DP  RH WIND       PRES   REMARKS
CUT BANK       CLOUDY    66  52  61 W7        30.20R
GREAT FALLS    CLOUDY    73  45  37 E13       30.15R
HELENA         CLOUDY    73  46  38 N7        30.16R
MALMSTROM AFB  CLOUDY    73  45  37 E10       30.15S
* CONRAD       CLOUDY    66  57  73 N/A        N/A
* DEARBORN     N/A       77  47  35 S5G15      N/A
* EAST GLACIER N/A       59  54  84 NE5        N/A
* MONARCH      N/A       68  39  35 E5         N/A
* PENDROY      N/A       69  55  61 NW5        N/A
* ROGERS PASS  N/A       56  53  90 NW1        N/A
* SAINT MARY   N/A       59  58  97 S3         N/A
* SWEET GRASS  N/A       67  52  59 N4         N/A
* WHITE SULPH  N/A       73  41  32 E8G15      N/A
$$

MTZ011-013-016-021-035-040-045-047-050-051-020700-
NORTH CENTRAL MONTANA
CITY           SKY/WX    TMP DP  RH WIND       PRES   REMARKS
HAVRE          CLOUDY    70  57  64 E13       30.14F
LEWISTOWN      CLOUDY    73  43  34 E12       30.22R
* FORT BENTON  CLOUDY    79  46  31 E14G22    30.12S
* CHESTER      N/A       68  58  71 E12G19     N/A
* DENTON       N/A       70  46  42 NE7        N/A
* GEYSER       N/A       72  44  37 NE13       N/A
* JUDITH GAP   N/A       67  45  45 E8         N/A
* LOMA         N/A       76  45  33 NE8        N/A
$$

MTZ017>020-022>027-061-062-020700-
NORTHEAST MONTANA
CITY           SKY/WX    TMP DP  RH WIND       PRES   REMARKS
GLASGOW        MOCLDY    64  55  73 NE15G24   30.14S
GLENDIVE       CLOUDY    70  48  46 E9        30.14S
JORDAN         PTCLDY    75  48  39 NE14      30.13R
SIDNEY         CLOUDY    66  55  68 CALM      30.10F
WOLF POINT     PTCLDY    66  55  68 N10       30.12F
* BEAVER HILL  N/A       71  50  48 E10G19     N/A
* CIRCLE       N/A       69  54  59 N5G11      N/A
* LINDSAY DVD  N/A       63  51  65 E4         N/A
* NAVAJO       N/A       61  56  84 N9         N/A
$$

MTZ028>042-056>058-020700-
SOUTHCENTRAL AND SOUTHEAST MONTANA
CITY           SKY/WX    TMP DP  RH WIND       PRES   REMARKS
BAKER          PTCLDY    63  55  75 SE6       30.16R
BILLINGS       PTCLDY    75  43  32 S7        30.16S
LIVINGSTON     PTCLDY    63  43  48 S7        30.22S
MILES CITY     CLEAR     72  55  55 NE6       30.11R
* LAUREL APT   PTCLDY    68  41  38 N/A        N/A
* ROUNDUP APT  PTCLDY    72  39  30 NW5        N/A
* ALZADA       N/A       67  48  51 N/A        N/A
* HYSHAM       N/A       73  42  33 NE6        N/A
* LAME DEER    N/A       70  44  39 NE7        N/A
* REED POINT   N/A       63  48  58 N/A        N/A
* ROSCOE HILL  N/A       68  35  30 E4         N/A
$$

REGIONAL REPORTS...DAKOTAS
CITY           SKY/WX    TMP DP  RH WIND       PRES   REMARKS
WILLISTON      MOCLDY    70  54  57 SE5       30.08F
DICKINSON      CLEAR     61  55  81 CALM      30.13R
CROSBY         N/A       64  63  97 NE10      30.10F
TIOGA          CLEAR     57  57 100 E3        30.15S
WATFORD CITY   FAIR      63  59  87 SE6       30.10R
BISMARCK       PTCLDY    64  63  97 CALM      30.11R
GRAND FORKS    CLEAR     63  57  81 S3        30.07R
FARGO          FOG       64  61  90 CALM      30.09R
BUFFALO SD     PTCLDY    66  57  73 NE18      30.06R
RAPID CITY     PTCLDY    64  48  56 NW8       30.08R
$$

REGIONAL REPORTS...WYOMING/IDAHO/WASHINGTON
CITY           SKY/WX    TMP DP  RH WIND       PRES   REMARKS
GILLETTE       PTCLDY    57  46  67 CALM      30.18R
SHERIDAN       MOCLDY    63  48  58 CALM      30.18R
CODY           MOCLDY    66  46  49 SW9G16    30.25F
YELLOWSTONE LA MOCLDY    48  43  83 CALM      30.46F
SALMON         CLOUDY    61  52  72 CALM      30.17S
MULLAN PASS    MOCLDY    64  39  40 SE9       30.26S
SAND POINT     PTCLDY    63  54  73 CALM      30.00S
SPOKANE        MOCLDY    79  46  31 SE6       29.99F
$$

REGIONAL REPORTS...ALBERTA
CITY           SKY/WX    TMP DP  RH WIND       PRES   REMARKS
CALGARY        MOCLDY    64  55  73 SE10      30.21F
LETHBRIDGE     MOCLDY    63  57  81 E5        30.18R
MEDICINE HAT   CLEAR     64  54  70 E7        30.18S
EDMONTON       MOCLDY    61  57  87 SE9       30.19F
WATERTON GATE  N/A       64  59  84 NE3        N/A
CARDSTON       N/A       68  63  84 E2         N/A
MILK RIVER     N/A       64  54  70 E8         N/A
$$

REGIONAL REPORTS...SASKATCHEWAN
CITY           SKY/WX    TMP DP  RH WIND       PRES   REMARKS
SWIFT CURRENT  FOG       61  59  93 NW3       30.20R VSB 1
REGINA         MOCLDY    59  59 100 W3        30.14R
VAL MARIE      N/A       57  54  90 N9         N/A
ASSINIBOIA     N/A       59  57  93 W6         N/A
CORONACH       N/A       61  57  87 NW3        N/A

$$



USA.gov is the U.S. government's official web portal to all federal, state and local government web resources and services.